Time,TemperatureF,DewpointF,PressureIn,WindDirection,WindDirectionDegrees,WindSpeedMPH,WindSpeedGustMPH,Humidity,HourlyPrecipIn,Conditions,Clouds,dailyrainin,SoftwareType,DateUTC
2013-11-13 00:00:00,44.3,27.3,30.01,North,0,0.0,0.0,51,0.00,,,0.00,WUHU216HW,2013-11-13 06:00:00,
2013-11-13 00:05:00,44.3,27.3,30.01,North,0,0.0,0.0,51,0.00,,,0.00,WUHU216HW,2013-11-13 06:05:00,
2013-11-13 00:30:00,43.4,26.5,30.01,North,0,0.0,0.0,51,0.00,,,0.00,WUHU216HW,2013-11-13 06:30:00,
2013-11-13 00:35:00,43.4,26.5,30.01,North,0,0.0,0.0,51,0.00,,,0.00,WUHU216HW,2013-11-13 06:35:00,
2013-11-13 01:00:00,42.8,26.0,30.01,North,0,0.0,0.0,51,0.00,,,0.00,WUHU216HW,2013-11-13 07:00:00,
2013-11-13 01:05:00,42.8,26.0,30.01,North,0,0.0,0.0,51,0.00,,,0.00,WUHU216HW,2013-11-13 07:05:00,
2013-11-13 01:30:00,42.1,25.3,30.01,North,0,0.0,0.0,51,0.00,,,0.00,WUHU216HW,2013-11-13 07:30:00,
2013-11-13 01:35:00,42.1,25.3,30.01,North,0,0.0,0.0,51,0.00,,,0.00,WUHU216HW,2013-11-13 07:35:00,
2013-11-13 02:00:00,41.4,25.0,30.00,North,0,0.0,0.0,52,0.00,,,0.00,WUHU216HW,2013-11-13 08:00:00,
2013-11-13 02:05:00,41.4,25.0,30.00,North,0,0.0,0.0,52,0.00,,,0.00,WUHU216HW,2013-11-13 08:05:00,
2013-11-13 02:30:00,40.7,24.8,29.99,North,0,0.0,0.0,53,0.00,,,0.00,WUHU216HW,2013-11-13 08:30:00,
2013-11-13 02:35:00,40.7,24.8,29.99,North,0,0.0,0.0,53,0.00,,,0.00,WUHU216HW,2013-11-13 08:35:00,
2013-11-13 03:00:00,40.1,24.8,30.00,North,0,0.0,0.0,54,0.00,,,0.00,WUHU216HW,2013-11-13 09:00:00,
2013-11-13 03:05:00,40.1,24.8,30.00,North,0,0.0,0.0,54,0.00,,,0.00,WUHU216HW,2013-11-13 09:05:00,
2013-11-13 03:30:00,39.2,24.8,30.00,North,0,0.0,0.0,56,0.00,,,0.00,WUHU216HW,2013-11-13 09:30:00,
2013-11-13 03:35:00,39.2,24.8,30.00,North,0,0.0,0.0,56,0.00,,,0.00,WUHU216HW,2013-11-13 09:35:00,
2013-11-13 04:00:00,38.5,24.9,30.00,North,0,0.0,0.0,58,0.00,,,0.00,WUHU216HW,2013-11-13 10:00:00,
2013-11-13 04:05:00,38.5,24.9,30.00,North,0,0.0,0.0,58,0.00,,,0.00,WUHU216HW,2013-11-13 10:05:00,
2013-11-13 04:30:00,38.0,25.3,30.00,North,0,0.0,0.0,60,0.00,,,0.00,WUHU216HW,2013-11-13 10:30:00,
2013-11-13 04:35:00,38.0,25.3,30.00,North,0,0.0,0.0,60,0.00,,,0.00,WUHU216HW,2013-11-13 10:35:00,
2013-11-13 05:00:00,37.4,25.2,30.00,North,0,0.0,0.0,61,0.00,,,0.00,WUHU216HW,2013-11-13 11:00:00,
2013-11-13 05:05:00,37.4,25.2,30.00,North,0,0.0,0.0,61,0.00,,,0.00,WUHU216HW,2013-11-13 11:05:00,
2013-11-13 05:30:00,37.1,24.9,30.01,North,0,0.0,0.0,61,0.00,,,0.00,WUHU216HW,2013-11-13 11:30:00,
2013-11-13 05:35:00,37.1,24.9,30.01,North,0,0.0,0.0,61,0.00,,,0.00,WUHU216HW,2013-11-13 11:35:00,
2013-11-13 06:00:00,36.5,24.8,30.00,North,0,0.0,0.0,62,0.00,,,0.00,WUHU216HW,2013-11-13 12:00:00,
2013-11-13 06:05:00,36.5,24.8,30.00,North,0,0.0,0.0,62,0.00,,,0.00,WUHU216HW,2013-11-13 12:05:00,
2013-11-13 06:30:00,36.0,25.4,30.00,North,0,0.0,0.0,65,0.00,,,0.00,WUHU216HW,2013-11-13 12:30:00,
2013-11-13 06:35:00,36.0,25.4,30.00,North,0,0.0,0.0,65,0.00,,,0.00,WUHU216HW,2013-11-13 12:35:00,
2013-11-13 07:00:00,35.5,25.6,30.00,North,0,0.0,0.0,67,0.00,,,0.00,WUHU216HW,2013-11-13 13:00:00,
2013-11-13 07:05:00,35.5,25.6,30.00,North,0,0.0,0.0,67,0.00,,,0.00,WUHU216HW,2013-11-13 13:05:00,
2013-11-13 07:30:00,35.5,25.6,30.01,North,0,0.0,0.0,67,0.00,,,0.00,WUHU216HW,2013-11-13 13:30:00,
2013-11-13 07:35:00,35.5,25.6,30.01,North,0,0.0,0.0,67,0.00,,,0.00,WUHU216HW,2013-11-13 13:35:00,
2013-11-13 08:00:00,36.2,26.3,30.02,North,0,0.0,0.0,67,0.00,,,0.00,WUHU216HW,2013-11-13 14:00:00,
2013-11-13 08:05:00,36.2,26.3,30.02,North,0,0.0,0.0,67,0.00,,,0.00,WUHU216HW,2013-11-13 14:05:00,
2013-11-13 08:30:00,37.6,26.6,30.03,North,0,0.0,0.0,64,0.00,,,0.00,WUHU216HW,2013-11-13 14:30:00,
2013-11-13 08:35:00,37.6,26.6,30.03,North,0,0.0,0.0,64,0.00,,,0.00,WUHU216HW,2013-11-13 14:35:00,
2013-11-13 09:00:00,40.0,26.7,30.03,North,0,0.0,0.0,59,0.00,,,0.00,WUHU216HW,2013-11-13 15:00:00,
2013-11-13 09:05:00,40.0,26.7,30.03,North,0,0.0,0.0,59,0.00,,,0.00,WUHU216HW,2013-11-13 15:05:00,
2013-11-13 09:30:00,41.4,26.4,30.03,North,0,0.0,0.0,55,0.00,,,0.00,WUHU216HW,2013-11-13 15:30:00,
2013-11-13 09:35:00,41.4,26.4,30.03,North,0,0.0,0.0,55,0.00,,,0.00,WUHU216HW,2013-11-13 15:35:00,
2013-11-13 10:00:00,42.8,26.8,30.02,North,0,0.0,0.0,53,0.00,,,0.00,WUHU216HW,2013-11-13 16:00:00,
2013-11-13 10:05:00,42.8,26.8,30.02,North,0,0.0,0.0,53,0.00,,,0.00,WUHU216HW,2013-11-13 16:05:00,
2013-11-13 10:30:00,44.6,27.6,30.01,North,0,0.0,0.0,51,0.00,,,0.00,WUHU216HW,2013-11-13 16:30:00,
2013-11-13 10:35:00,44.6,27.6,30.01,North,0,0.0,0.0,51,0.00,,,0.00,WUHU216HW,2013-11-13 16:35:00,
2013-11-13 11:00:00,46.6,28.5,30.01,North,0,0.0,0.0,49,0.00,,,0.00,WUHU216HW,2013-11-13 17:00:00,
2013-11-13 11:05:00,46.6,28.5,30.01,North,0,0.0,0.0,49,0.00,,,0.00,WUHU216HW,2013-11-13 17:05:00,
2013-11-13 11:30:00,48.4,29.0,29.99,North,0,0.0,0.0,47,0.00,,,0.00,WUHU216HW,2013-11-13 17:30:00,
2013-11-13 11:35:00,48.4,29.0,29.99,North,0,0.0,0.0,47,0.00,,,0.00,WUHU216HW,2013-11-13 17:35:00,
2013-11-13 12:00:00,49.9,29.8,29.97,North,0,0.0,0.0,46,0.00,,,0.00,WUHU216HW,2013-11-13 18:00:00,
2013-11-13 12:05:00,49.9,29.8,29.97,North,0,0.0,0.0,46,0.00,,,0.00,WUHU216HW,2013-11-13 18:05:00,
2013-11-13 12:30:00,51.3,30.0,29.94,North,0,0.0,0.0,44,0.00,,,0.00,WUHU216HW,2013-11-13 18:30:00,
2013-11-13 12:35:00,51.3,30.0,29.94,North,0,0.0,0.0,44,0.00,,,0.00,WUHU216HW,2013-11-13 18:35:00,
2013-11-13 13:00:00,52.4,29.9,29.91,North,0,0.0,0.0,42,0.00,,,0.00,WUHU216HW,2013-11-13 19:00:00,
2013-11-13 13:05:00,52.4,29.9,29.91,North,0,0.0,0.0,42,0.00,,,0.00,WUHU216HW,2013-11-13 19:05:00,
2013-11-13 13:30:00,53.8,30.6,29.89,North,0,0.0,0.0,41,0.00,,,0.00,WUHU216HW,2013-11-13 19:30:00,
2013-11-13 13:35:00,53.8,30.6,29.89,North,0,0.0,0.0,41,0.00,,,0.00,WUHU216HW,2013-11-13 19:35:00,
2013-11-13 14:00:00,54.2,29.7,29.88,North,0,0.0,0.0,39,0.00,,,0.00,WUHU216HW,2013-11-13 20:00:00,
2013-11-13 14:05:00,54.2,29.7,29.88,North,0,0.0,0.0,39,0.00,,,0.00,WUHU216HW,2013-11-13 20:05:00,
2013-11-13 14:30:00,54.7,30.2,29.86,North,0,0.0,0.0,39,0.00,,,0.00,WUHU216HW,2013-11-13 20:30:00,
2013-11-13 14:35:00,54.7,30.2,29.86,North,0,0.0,0.0,39,0.00,,,0.00,WUHU216HW,2013-11-13 20:35:00,
2013-11-13 15:00:00,55.1,28.4,29.85,North,0,0.0,0.0,36,0.00,,,0.00,WUHU216HW,2013-11-13 21:00:00,
2013-11-13 15:05:00,55.1,28.4,29.85,North,0,0.0,0.0,36,0.00,,,0.00,WUHU216HW,2013-11-13 21:05:00,
2013-11-13 15:30:00,55.8,30.4,29.85,North,0,0.0,0.0,38,0.00,,,0.00,WUHU216HW,2013-11-13 21:30:00,
2013-11-13 15:35:00,55.8,30.4,29.85,North,0,0.0,0.0,38,0.00,,,0.00,WUHU216HW,2013-11-13 21:35:00,
2013-11-13 16:00:00,55.4,30.8,29.84,North,0,0.0,0.0,39,0.00,,,0.00,WUHU216HW,2013-11-13 22:00:00,
2013-11-13 16:05:00,55.4,30.8,29.84,North,0,0.0,0.0,39,0.00,,,0.00,WUHU216HW,2013-11-13 22:05:00,
2013-11-13 16:30:00,54.7,30.2,29.83,North,0,0.0,0.0,39,0.00,,,0.00,WUHU216HW,2013-11-13 22:30:00,
2013-11-13 16:35:00,54.7,30.2,29.83,North,0,0.0,0.0,39,0.00,,,0.00,WUHU216HW,2013-11-13 22:35:00,
2013-11-13 17:00:00,54.0,31.9,29.83,North,0,0.0,0.0,43,0.00,,,0.00,WUHU216HW,2013-11-13 23:00:00,
2013-11-13 17:05:00,54.0,31.9,29.83,North,0,0.0,0.0,43,0.00,,,0.00,WUHU216HW,2013-11-13 23:05:00,
2013-11-13 17:30:00,52.4,31.0,29.82,North,0,0.0,0.0,44,0.00,,,0.00,WUHU216HW,2013-11-13 23:30:00,
2013-11-13 17:35:00,52.4,31.0,29.82,North,0,0.0,0.0,44,0.00,,,0.00,WUHU216HW,2013-11-13 23:35:00,
2013-11-13 18:00:00,50.0,29.4,29.82,North,0,0.0,0.0,45,0.00,,,0.00,WUHU216HW,2013-11-14 00:00:00,
2013-11-13 18:05:00,50.0,29.4,29.82,North,0,0.0,0.0,45,0.00,,,0.00,WUHU216HW,2013-11-14 00:05:00,
2013-11-13 18:30:00,48.4,29.0,29.83,North,0,0.0,0.0,47,0.00,,,0.00,WUHU216HW,2013-11-14 00:30:00,
2013-11-13 18:35:00,48.4,29.0,29.83,North,0,0.0,0.0,47,0.00,,,0.00,WUHU216HW,2013-11-14 00:35:00,
2013-11-13 19:00:00,47.2,28.4,29.83,North,0,0.0,0.0,48,0.00,,,0.00,WUHU216HW,2013-11-14 01:00:00,
2013-11-13 19:05:00,47.2,28.4,29.83,North,0,0.0,0.0,48,0.00,,,0.00,WUHU216HW,2013-11-14 01:05:00,
2013-11-13 19:30:00,46.1,27.9,29.83,North,0,0.0,0.0,49,0.00,,,0.00,WUHU216HW,2013-11-14 01:30:00,
2013-11-13 19:35:00,46.1,27.9,29.83,North,0,0.0,0.0,49,0.00,,,0.00,WUHU216HW,2013-11-14 01:35:00,
2013-11-13 20:00:00,45.0,27.6,29.83,North,0,0.0,0.0,50,0.00,,,0.00,WUHU216HW,2013-11-14 02:00:00,
2013-11-13 20:05:00,45.0,27.6,29.83,North,0,0.0,0.0,50,0.00,,,0.00,WUHU216HW,2013-11-14 02:05:00,
2013-11-13 20:30:00,43.9,27.5,29.82,North,0,0.0,0.0,52,0.00,,,0.00,WUHU216HW,2013-11-14 02:30:00,
2013-11-13 20:35:00,43.9,27.5,29.82,North,0,0.0,0.0,52,0.00,,,0.00,WUHU216HW,2013-11-14 02:35:00,
2013-11-13 21:00:00,43.2,27.2,29.83,North,0,0.0,0.0,53,0.00,,,0.00,WUHU216HW,2013-11-14 03:00:00,
2013-11-13 21:05:00,43.2,27.2,29.83,North,0,0.0,0.0,53,0.00,,,0.00,WUHU216HW,2013-11-14 03:05:00,
2013-11-13 21:30:00,42.7,27.1,29.83,North,0,0.0,0.0,54,0.00,,,0.00,WUHU216HW,2013-11-14 03:30:00,
2013-11-13 21:35:00,42.7,27.1,29.83,North,0,0.0,0.0,54,0.00,,,0.00,WUHU216HW,2013-11-14 03:35:00,
2013-11-13 22:00:00,41.0,26.5,29.83,North,0,0.0,0.0,56,0.00,,,0.00,WUHU216HW,2013-11-14 04:00:00,
2013-11-13 22:05:00,41.0,26.5,29.83,North,0,0.0,0.0,56,0.00,,,0.00,WUHU216HW,2013-11-14 04:05:00,
2013-11-13 22:30:00,40.3,27.1,29.82,North,0,0.0,0.0,59,0.00,,,0.00,WUHU216HW,2013-11-14 04:30:00,
2013-11-13 22:35:00,40.3,27.1,29.82,North,0,0.0,0.0,59,0.00,,,0.00,WUHU216HW,2013-11-14 04:35:00,
2013-11-13 23:00:00,39.8,28.2,29.81,North,0,0.0,0.0,63,0.00,,,0.00,WUHU216HW,2013-11-14 05:00:00,
2013-11-13 23:01:00,39.8,28.2,29.81,North,0,0.0,0.0,63,0.00,,,0.00,WUHU216HW,2013-11-14 05:01:00,
2013-11-13 23:03:00,39.8,28.2,29.81,North,0,0.0,0.0,63,0.00,,,0.00,WUHU216HW,2013-11-14 05:03:00,
2013-11-13 23:08:00,39.8,28.2,29.81,North,0,0.0,0.0,63,0.00,,,0.00,WUHU216HW,2013-11-14 05:08:00,
2013-11-13 23:30:00,39.1,27.5,29.80,North,0,0.0,0.0,63,0.00,,,0.00,WUHU216HW,2013-11-14 05:30:00,
2013-11-13 23:35:00,39.1,27.5,29.80,North,0,0.0,0.0,63,0.00,,,0.00,WUHU216HW,2013-11-14 05:35:00,